Probability
0 0 0 0 0 0 0 0 0 0 0 0 0 0 0 0 0 0 0 0 0 0 0 0 0 0 0 0 0 0 0 0 0 0 0 0 0 0 0 0 0 0 0 0
0 0 0 0 0 0 0 0 0 0 0 0 0 0 0 0 0 0 0 0 0 0 0 0 0 0 0 0 0 0 0 0 0 0 0 0 0 0 0 0 0 0 0 0
0 0 0 0 0 0 0 0 0 0 0 0 0 0 0 0 0 0 0 0 0 0 0 0 0 0 0 0 0 0 0 0 0 0 0 0 0 0 0 0 0 0 0 0
0 0 0 0 0 0 0 0 0 0 0 0 0 0 0 0 0 0 0 0 0 0 0 0 0 0 0 0 0 0 0 0 0 0 0 0 0 0 0 0 0 0 0 0
0 0 0 0 0 0 0 0 0 0 0 0 0 0 0 0 0 0 0 0 0 0 0 0 0 0 0 0 0 0 0 0 0 0 0 0 0 0 0 0 0 0 0 0
0 0 0 0 0 0 0 0 0 0 0 0 0 0 0 0 0 0 0 0 0 0 0 0 0 0 0 0 0 0 0 0 0 0 0 0 0 0 0 0 0 0 0 0
0 0 0 0 0 0 0 0 0 0 0 0 0 0 0 0 0 0 0 0 0 0 0 0 0 0 0 0 0 0 0 0 0 0 0 0 0 0 0 0 0 0 0 0
0 0 0 0 0 0 0 0 0 0 0 0 0 0 0 0 0 0 0 0 0 0 0 0 0 0 0 0 0 0 0 0 0 0 0 0 0 0 0 0 0 0 0 0
0 0 0 0 0 0 0 0 0 0 0 0 0 0 0 0 0 0 0 0 0 0 0 0 0 0 0 0 0 0 0 0 0 0 0 0 0 0 0 0 0 0 0 0
0 0 0 0 0 0 0 0 0 0 0 0 0 0 0 0 0 0 0 0 0 0 0 0 0 0 0 0 0 0 0 0 0 0 0 0 0 0 0 0 0 0 0 0
0 0 0 0 0 0 0 0 0 0 0 0 0 0 0 0 0 0 0 0 0 0 0 0 0 0 0 0 0 0 0 0 0 0 0 0 0 0 0 0 0 0 0 0
0 0 0 0 0 0 0 0 0 0 0 0 0 0 0 0 0 0 0 0 0 0 0 0 0 0 0 0 0 0 0 0 0 0 0 0 0 0 0 0 0 0 0 0
0 0 0 0 0 0 0 0 0 0 0 0 0 0 0 0 0 0 0 0 0 0 0 0 0 0 0 0 0 0 0 0 0 0 0 0 0 0 0 0 0 0 0 0
0 0 0 0 0 0 0 0 0 0 0 0 0 0 0 0 0 0 0 0 0 0 0 0 0 0 0 0 0 0 0 0 0 0 0 0 0 0 0 0 0 0 0 0
0 0 0 0 0 0 0 0 0 0 0 0 0 0 0 0 0 0 0 0 0 0 0 0 0 0 0 0 0 0 0 0 0 0 0 0 0 0 0 0 0 0 0 0
0 0 0 0 0 0 0 0 0 0 0 0 0 0 0 0 0 0 0 0 0 0 0 0 0 0 0 0 0 0 0 0 0 0 0 0 0 0 0 0 0 0 0 0
0 0 0 0 0 0 0 0 0 0 0 0 0 0 0 0 0 0 0 0 0 0 0 0 0 0 0 0 0 0 0 0 0 0 0 0 0 0 0 0 0 0 0 0
0 0 0 0 0 0 0 0 0 0 0 0 0 0 0 0 0 0 0 0 0 0 0 0 0 0 0 0 0 0 0 0 0 0 0 0 0 0 0 0 0 0 0 0
0 0 0 0 0 0 0 0 0 0 0 0 0 0 0 0 0 0 0 0 0 0 0 0 0 0 0 0 0 0 0 0 0 0 0 0 0 0 0 0 0 0 0 0
0 0 0 0 0 0 0 0 0 0 0 0 0 0 0 0 0 0 0 0 0 0 0 0 0 0 0 0 0 0 0 0 0 0 0 0 0 0 0 0 0 0 0 0
0 0 0 0 0 0 0 0 0 0 0 0 0 0 0 0 0 0 0 0 0 0 0 0 0 0 0 0 0 0 0 0 0 0 0 0 0 0 0 0 0 0 0 0
0 0 0 0 0 0 0 0 0 0 0 0 0 0 0 0 0 0 0 0 0 0 0 0 0 0 0 0 0 0 0 0 0 0 0 0 0 0 0 0 0 0 0 0
0 0 0 0 0 0 0 0 0 0 0 0 0 0 0 0 0 0 0 0 0 0 0 0 0 0 0 0 0 0 0 0 0 0 0 0 0 0 0 0 0 0 0 0
0 0 0 0 0 0 0 0 0 0 0 0 0 0 0 0 0 0 0 0 0 0 0 0 0 0 0 0 0 0 0 0 0 0 0 0 0 0 0 0 0 0 0 0
0 0 0 0 0 0 0 0 0 0 0 0 0 0 0 0 0 0 0 0 0 0 0 0 0 0 0 0 0 0 0 0 0 0 0 0 0 0 0 0 0 0 0 0
0 0 0 0 0 0 0 0 0 0 0 0 0 0 0 0 0 0 0 0 0 0 0 0 0 0 0 0 0 0 0 0 0 0 0 0 0 0 0 0 0 0 0 0
Wind_Speed
6 6 10 12 14 12 9 10 11 8 1 6 9 11 9 9 9 10 9 9 9 8 9 8 6 5 4 5 6 7 9 8 8 7 7 8 7 7 7 8 10 10 10 10
5 12 15 10 8 10 11 12 12 10 5 5 7 11 10 9 12 12 12 11 11 10 9 8 7 6 5 6 6 7 8 7 6 6 7 7 8 8 7 6 9 10 10 9
14 6 8 12 11 9 11 12 11 10 5 4 5 11 13 14 14 12 11 10 11 13 13 11 9 7 6 6 6 7 8 9 9 10 10 10 8 7 7 8 7 9 9 9
14 12 6 7 10 10 11 8 9 9 7 6 7 12 8 10 11 12 12 10 9 10 12 11 10 9 8 7 7 8 9 10 9 9 10 12 10 10 7 6 7 8 9 9
9 7 9 12 11 10 5 3 2 4 6 10 7 14 10 8 10 13 13 11 9 10 12 11 10 9 9 8 7 8 9 9 8 7 9 12 11 10 8 8 9 8 7 8
12 4 5 5 3 6 6 4 1 1 3 11 10 14 14 9 12 10 13 12 10 11 12 11 9 10 9 8 7 8 9 9 8 9 10 11 13 12 11 9 8 6 5 5
9 11 6 3 3 3 6 6 2 4 6 10 8 12 10 2 2 4 10 12 12 12 12 12 11 10 10 10 9 9 10 10 9 10 10 10 11 11 10 9 8 7 5 5
8 10 16 12 12 10 12 11 9 8 7 5 5 11 6 3 3 3 7 11 12 12 11 12 11 10 10 10 10 10 10 10 10 10 10 9 9 7 7 8 8 7 5 5
8 6 6 12 8 9 9 11 9 3 2 4 8 8 4 2 3 4 8 11 12 12 12 12 11 10 10 11 10 10 11 10 10 10 10 9 9 8 9 9 8 6 5 5
4 4 3 5 4 6 6 7 5 7 6 7 9 10 9 9 11 9 11 13 13 13 13 13 12 12 11 10 10 10 10 11 10 9 9 9 9 9 9 8 8 7 6 6
6 5 3 3 11 13 10 8 8 7 6 5 7 8 2 9 12 14 15 14 15 15 14 13 11 11 11 10 10 10 10 10 10 9 9 10 9 9 9 8 8 7 7 6
9 4 6 9 7 7 12 14 13 9 8 6 6 9 1 3 2 9 12 12 13 13 12 12 12 11 11 11 11 10 10 10 10 10 10 10 9 9 9 8 8 7 7 6
9 7 5 4 5 4 8 15 18 10 5 8 9 10 1 3 3 5 9 12 13 14 14 13 13 13 13 12 11 11 11 10 10 10 10 10 9 9 9 8 8 7 7 6
9 9 12 13 6 9 8 11 15 14 10 12 16 12 5 3 4 6 9 12 13 14 15 15 14 14 13 12 12 12 11 11 11 11 11 10 10 9 9 8 8 7 6 6
10 10 12 16 13 5 7 11 16 21 22 16 15 16 16 9 10 10 10 12 14 15 16 18 17 15 15 14 13 12 12 12 12 12 11 10 10 10 9 9 8 7 6 5
10 9 9 15 17 13 12 14 17 21 20 23 21 23 12 6 5 7 11 14 15 16 19 18 17 16 17 17 15 14 14 13 12 12 11 11 11 10 10 9 8 7 6 5
8 8 9 11 10 9 19 23 20 17 16 16 23 26 9 7 9 11 13 15 16 16 17 18 19 18 17 16 15 15 13 12 12 12 12 12 11 11 10 9 8 7 6 5
10 8 6 5 8 18 14 9 19 23 23 20 16 12 9 11 10 10 12 16 16 15 15 16 15 15 13 13 13 12 12 13 13 12 12 12 12 11 10 9 8 7 5 5
11 10 7 6 10 9 7 5 9 14 18 17 18 16 10 4 2 5 6 10 12 13 13 12 12 12 13 14 14 14 14 14 14 13 13 13 13 12 11 10 9 7 6 5
8 9 9 8 8 9 7 2 1 5 9 6 9 12 9 8 7 9 6 7 6 7 7 8 9 10 13 14 15 16 15 15 15 15 13 12 12 13 12 11 8 5 5 5
8 9 14 13 10 7 4 3 5 8 8 2 4 6 8 10 7 2 5 4 5 5 6 8 10 10 12 14 16 16 15 16 14 11 11 11 11 10 10 9 6 7 5 5
11 9 9 8 9 9 6 6 9 5 1 0 1 2 5 4 4 5 5 5 6 5 5 7 8 8 9 13 15 15 15 12 11 12 11 11 10 9 8 9 7 6 6 5
8 8 6 7 6 1 4 4 1 1 2 1 1 1 4 4 4 4 4 5 5 5 5 5 8 8 7 9 13 14 12 12 13 12 11 10 9 8 8 9 9 7 6 5
4 1 2 2 2 1 2 1 2 1 1 1 1 2 4 4 5 5 5 5 5 5 5 5 8 9 7 7 8 9 11 13 13 13 11 10 10 9 7 7 7 7 7 7
4 6 4 3 1 1 4 6 5 3 2 2 2 2 3 4 4 5 4 5 5 5 5 6 7 8 8 7 7 8 11 13 12 12 10 10 9 9 8 7 7 8 7 8
6 7 7 6 7 7 7 7 8 7 6 5 4 3 2 4 5 5 4 4 5 5 5 6 6 7 7 8 8 8 10 13 13 11 10 9 8 8 7 7 5 11 10 13
Wind_Direction
182 206 212 213 214 237 276 293 295 292 123 186 229 246 242 202 205 218 209 191 186 171 137 130 130 130 123 112 111 114 117 121 120 116 108 99 90 83 77 72 71 69 69 67
180 230 232 234 234 234 246 260 268 275 238 217 255 260 259 229 216 214 212 199 185 161 144 144 143 141 138 128 124 123 122 118 110 106 105 104 106 91 84 77 70 66 64 64
209 207 214 228 236 244 245 245 254 263 281 225 267 264 238 237 226 216 213 202 184 170 162 156 153 147 139 135 132 127 120 115 113 114 113 111 102 97 86 78 73 66 66 64
238 245 235 221 222 217 248 240 244 254 269 258 224 277 238 232 221 214 210 205 189 163 154 153 153 148 141 132 125 122 120 120 122 126 127 126 121 114 108 101 89 75 66 64
228 197 211 221 217 208 229 31 288 252 255 266 259 278 262 218 224 221 210 199 180 152 148 151 150 142 135 131 127 123 121 122 126 121 119 116 114 114 113 107 99 88 74 67
253 252 210 235 230 210 131 93 40 293 265 261 222 243 271 205 218 210 199 185 164 146 143 141 134 131 132 130 127 127 127 122 119 115 113 118 123 125 122 117 110 100 88 73
243 233 201 137 132 158 145 150 217 236 225 247 191 222 257 194 183 189 176 165 156 148 146 144 143 145 145 143 139 136 133 126 119 115 115 119 121 122 122 121 115 110 98 84
220 229 193 183 190 187 191 183 186 214 232 260 220 234 252 114 59 61 130 146 149 151 151 152 154 154 152 149 146 142 137 129 124 121 119 116 115 113 110 108 109 106 104 98
224 242 159 175 181 182 182 217 219 251 300 285 254 257 252 152 197 168 152 153 162 162 158 157 157 156 155 153 151 146 139 132 129 126 121 115 111 108 108 106 103 104 103 99
243 257 119 108 126 241 231 177 168 198 219 241 256 237 232 198 218 193 177 174 172 167 164 163 161 159 157 154 147 142 139 136 132 129 126 121 114 112 111 108 107 108 103 97
220 224 160 155 194 191 194 206 191 186 209 217 262 251 251 189 193 189 189 182 176 173 170 166 162 157 154 151 148 146 144 139 137 133 126 122 119 116 114 112 112 112 106 100
197 209 224 218 216 222 209 200 192 190 214 218 246 261 30 53 150 174 177 174 171 169 167 163 160 157 158 159 156 154 150 146 143 137 131 128 126 123 119 117 115 112 107 101
159 176 214 245 216 214 227 214 211 215 200 212 228 255 110 73 86 142 160 165 168 168 168 166 166 168 168 167 163 160 156 152 145 140 137 135 133 130 126 123 119 115 114 111
162 187 209 219 196 176 205 214 212 208 223 232 233 245 227 190 185 177 169 169 170 173 174 174 176 176 174 172 170 165 162 156 151 146 144 143 141 137 132 128 124 122 120 119
173 211 223 243 255 235 207 215 216 218 222 229 241 242 243 215 207 195 177 171 174 179 182 184 183 180 177 175 174 169 164 159 154 151 150 148 139 133 130 130 129 126 124 123
190 212 216 240 241 243 244 231 223 226 229 237 250 256 249 236 204 178 177 179 185 188 190 189 184 181 182 180 176 171 167 161 156 155 153 145 140 139 140 139 139 139 138 137
193 200 211 239 223 226 240 231 225 226 224 225 239 250 254 233 208 194 189 189 194 194 192 190 189 187 184 180 175 173 164 153 154 155 152 150 148 148 148 148 149 153 153 150
189 194 218 227 199 229 238 208 209 223 232 227 234 248 232 221 215 202 190 189 196 195 192 191 189 186 177 169 165 157 151 155 157 157 156 155 153 152 152 155 161 160 156 160
196 197 218 220 233 250 266 221 194 206 236 228 229 239 236 208 184 244 204 189 193 191 189 187 182 174 165 164 160 153 155 158 161 166 167 164 159 158 161 167 169 164 158 165
202 203 222 227 230 225 231 217 185 154 247 239 213 224 208 159 206 239 189 176 173 164 162 161 156 153 159 161 155 156 163 166 174 174 171 165 162 164 170 170 162 154 158 167
187 207 224 235 243 242 228 196 135 172 234 251 212 207 183 192 212 167 129 135 138 136 142 147 150 158 162 157 156 164 168 179 175 160 157 159 163 165 163 156 151 148 156 160
182 192 205 212 230 235 174 156 185 203 165 165 214 181 169 153 113 109 114 122 125 126 131 139 144 149 151 155 160 168 178 167 148 149 154 158 158 156 153 150 149 152 157 166
202 198 195 198 213 187 170 185 186 155 165 180 177 150 143 143 144 132 132 133 131 132 133 129 135 136 145 159 165 171 166 148 147 150 156 156 152 153 155 157 160 163 171 180
221 137 161 199 215 202 224 277 247 208 187 155 145 149 148 152 150 146 144 144 141 139 140 133 137 147 160 167 166 160 149 148 150 156 158 157 158 160 162 168 171 175 180 186
183 158 167 203 190 208 254 234 225 214 181 141 123 144 159 152 157 162 162 160 158 151 147 150 161 169 171 162 157 150 149 149 154 158 160 164 168 169 174 184 190 189 192 187
178 168 173 205 194 189 218 220 204 200 207 190 171 168 174 173 173 165 169 167 161 161 158 164 173 174 171 165 164 160 156 157 158 163 169 172 173 174 175 178 196 218 205 213